Location: Fredericksburg
(30.2750°N, 98.8720°W)
Time: 01:22:12
(UTC-05:00)

ISS - All Passes

Search period start: 23 March 2017 00:00
Search period end: 02 April 2017 00:00
Orbit: 399 x 409 km, 51.6° (Epoch: 23 March)

Date Brightness Start Highest point End Pass type
(mag) Time Alt. Az. Time Alt. Az. Time Alt. Az.
23 Mar - 06:12:50 10° NNW 06:15:58 39° NE 06:19:05 10° ESE visible
23 Mar - 07:50:49 10° WSW 07:52:07 12° SW 07:53:26 10° SSW daylight
23 Mar - 21:12:56 10° S 21:15:17 19° SE 21:17:39 10° E visible
23 Mar - 22:48:49 10° W 22:51:36 25° NW 22:54:24 10° NNE night (unlit)
24 Mar - 05:21:00 10° NNW 05:23:32 20° NE 05:26:04 10° E visible
24 Mar - 06:57:10 10° WNW 06:59:59 26° SW 07:02:46 10° S visible
24 Mar - 21:56:01 10° WSW 21:59:12 55° NW 22:02:25 10° NE visible
25 Mar - 04:29:51 10° NNE 04:30:59 11° NNE 04:32:08 10° NE visible
25 Mar - 06:04:29 10° NW 06:07:45 63° SW 06:10:59 10° SSE visible
25 Mar - 21:03:42 10° SSW 21:06:53 59° SE 21:10:05 10° NE visible
25 Mar - 22:42:25 10° NW 22:43:37 12° NNW 22:44:48 10° NNW visible
26 Mar - 05:12:11 10° NW 05:15:25 52° NE 05:18:37 10° ESE visible
26 Mar - 20:11:57 10° S 20:14:38 24° SE 20:17:20 10° ENE visible
26 Mar - 21:48:32 10° W 21:51:03 20° NW 21:53:35 10° NNE visible
27 Mar - 04:20:11 10° NNW 04:22:58 25° NE 04:25:45 10° E night (unlit)
27 Mar - 05:56:50 10° WNW 05:59:19 20° SW 06:01:47 10° S visible
27 Mar - 19:21:30 10° SE 19:22:27 11° SE 19:23:25 10° ESE daylight
27 Mar - 20:55:30 10° WSW 20:58:35 41° NW 21:01:41 10° NNE visible
28 Mar - 03:28:39 10° N 03:30:26 14° NE 03:32:12 10° ENE night (unlit)
28 Mar - 05:03:54 10° WNW 05:07:04 45° SW 05:10:13 10° SSE night (unlit)
28 Mar - 20:02:59 10° SW 20:06:12 82° SE 20:09:27 10° NE daylight
29 Mar - 04:11:27 10° NW 04:14:44 71° NE 04:18:00 10° SE night (unlit)
29 Mar - 19:10:58 10° SSW 19:13:53 32° SE 19:16:50 10° ENE daylight
29 Mar - 20:48:13 10° W 20:50:24 17° NW 20:52:36 10° N visible
30 Mar - 03:19:19 10° NNW 03:22:17 31° NE 03:25:16 10° ESE night (unlit)
30 Mar - 04:56:31 10° W 04:58:32 15° SW 05:00:32 10° SSW night (unlit)
30 Mar - 18:19:47 10° SSE 18:21:39 14° SE 18:23:31 10° E daylight
30 Mar - 19:54:56 10° WSW 19:57:52 31° NW 20:00:49 10° NNE daylight
31 Mar - 02:27:32 10° N 02:29:45 17° NE 02:31:57 10° E night (unlit)
31 Mar - 04:03:16 10° WNW 04:06:16 34° SW 04:09:16 10° SSE night (unlit)
31 Mar - 19:02:11 10° SW 19:05:25 74° NW 19:08:40 10° NE daylight
01 Apr - 03:10:38 10° NW 03:13:56 85° SW 03:17:12 10° SE night (unlit)
01 Apr - 18:09:58 10° SSW 18:13:02 43° SE 18:16:08 10° ENE daylight
01 Apr - 19:47:54 10° WNW 19:49:39 14° NW 19:51:25 10° N daylight
